Location: Diati
(11.8376°N, 2.5966°E)
Time: 18:19:43
(UTC+00:00)

Gbstr 26 Del rocket - Pass Details

Date: 21 September 2020
Orbit: 493 x 1264 km, 51.8° (Epoch: 19 October)

Event Time Altitude Azimuth Distance (km) Brightness Sun altitude
Rises 18:50:23 0° 196° (SSW) 3,230 6.9 -16.6°
Reaches altitude 10° 18:52:47 10° 188° (S) 2,419 6.1 -17.1°
Maximum altitude 18:58:05 38° 121° (ESE) 1,411 4.4 -18.4°
Enters shadow 19:00:13 30° 83° (E) 1,694 4.7 -19.0°
